Weather History for Aiken, SC

Change the Weather History Date:

Saturday, December 25, 2010

  Actual Average Record
Temperature  
Mean Temperature 37 °F -  
Max Temperature 46 °F 56 °F 55 °F (2014)
Min Temperature 28 °F 33 °F 28 °F (2010)
Degree Days  
Heating Degree Days 28    
Moisture  
Dew Point 33 °F    
Average Humidity 88    
Maximum Humidity 100    
Minimum Humidity 66    
Precipitation  
Precipitation 0.00 in - - ()
Sea Level Pressure  
Sea Level Pressure 30.02 in    
Wind  
Wind Speed 2 mph (SSW)    
Max Wind Speed 12 mph    
Max Gust Speed -    
Visibility 10 miles    
Events Rain    
Averages and records for this station are not official NWS values.
T = Trace of Precipitation, MM = Missing Value Source: NWS Daily Summary

Daily Weather History Graph

Daily Weather History Graph

Search for Another Location

Airport:

Trip Planner

Search our weather history database for the weather conditions in past years. The results will help you decide how hot, cold, wet, or windy it might be!

Date:

Astronomy

Dec. 25, 2010 Rise Set
Actual Time 7:29 AM EST 5:24 PM EST
Civil Twilight 7:01 AM EST 5:52 PM EST
Nautical Twilight 6:30 AM EST 6:23 PM EST
Astronomical Twilight 5:59 AM EST 6:53 PM EST
Moon 10:26 PM EST (12/25) 10:32 AM EST (12/25)
Length of Visible Light 10h 50m
Length of Day
9h 55m
Waning Gibbous, 77% of the Moon is Illuminated
Dec 25
Waning Gibbous
Dec 27
Last Quarter
Jan 4
New
Jan 12
First Quarter
Jan 19
Full

Hourly Weather History & Observations

Time (EST) Temp. Windchill Dew Point Humidity Pressure Visibility Wind Dir Wind Speed Gust Speed Precip Events Conditions
12:15 AM 28.4 °F - 28.4 °F 100% 30.12 in 10.0 mi Calm Calm - N/A   Clear
12:35 AM 28.4 °F - 28.4 °F 100% 30.12 in 10.0 mi Calm Calm - N/A   Clear
12:55 AM 28.4 °F - 28.4 °F 100% 30.11 in 10.0 mi Calm Calm - N/A   Clear
1:15 AM 28.4 °F - 28.4 °F 100% 30.10 in 10.0 mi Calm Calm - N/A   Clear
1:35 AM 28.4 °F - 28.4 °F 100% 30.10 in 10.0 mi Calm Calm - N/A   Clear
1:55 AM 28.4 °F - 28.4 °F 100% 30.10 in 10.0 mi Calm Calm - N/A   Clear
2:15 AM 28.4 °F - 28.4 °F 100% 30.10 in 10.0 mi Calm Calm - N/A   Clear
2:35 AM 28.4 °F - 28.4 °F 100% 30.10 in 10.0 mi Calm Calm - N/A   Clear
2:55 AM 28.4 °F - 28.4 °F 100% 30.10 in 10.0 mi Calm Calm - N/A   Clear
3:15 AM 28.4 °F - 28.4 °F 100% 30.10 in 10.0 mi Calm Calm - N/A   Clear
3:35 AM 28.4 °F - 28.4 °F 100% 30.10 in 10.0 mi Calm Calm - N/A   Clear
3:55 AM 28.4 °F - 28.4 °F 100% 30.09 in 10.0 mi Calm Calm - N/A   Clear
4:15 AM 28.4 °F - 28.4 °F 100% 30.08 in 10.0 mi Calm Calm - N/A   Clear
4:35 AM 30.2 °F - 30.2 °F 100% 30.08 in 10.0 mi Calm Calm - N/A   Clear
4:55 AM 30.2 °F - 30.2 °F 100% 30.07 in 10.0 mi Calm Calm - N/A   Clear
5:15 AM 28.4 °F 24.6 °F 28.4 °F 100% 30.06 in 10.0 mi SSE 3.5 mph - N/A   Clear
5:35 AM 30.2 °F 26.7 °F 30.2 °F 100% 30.06 in 10.0 mi South 3.5 mph - N/A   Clear
5:55 AM 30.2 °F 26.7 °F 30.2 °F 100% 30.06 in 10.0 mi SSE 3.5 mph - N/A   Clear
6:15 AM 30.2 °F 26.7 °F 30.2 °F 100% 30.06 in 10.0 mi SSE 3.5 mph - N/A   Clear
6:35 AM 28.4 °F - 28.4 °F 100% 30.06 in 10.0 mi Calm Calm - N/A   Clear
6:55 AM 28.4 °F - 28.4 °F 100% 30.06 in 10.0 mi Calm Calm - N/A   Clear
7:15 AM 28.4 °F - 28.4 °F 100% 30.06 in 10.0 mi Calm Calm - N/A   Clear
7:35 AM 28.4 °F - 28.4 °F 100% 30.06 in 10.0 mi Calm Calm - N/A   Clear
7:55 AM 30.2 °F 25.4 °F 30.2 °F 100% 30.05 in 10.0 mi South 4.6 mph - N/A   Clear
8:15 AM 32.0 °F 27.5 °F 32.0 °F 100% 30.05 in 10.0 mi South 4.6 mph - N/A   Clear
8:35 AM 32.0 °F 28.7 °F 32.0 °F 100% 30.04 in 10.0 mi SSE 3.5 mph - N/A   Clear
8:55 AM 32.0 °F - 32.0 °F 100% 30.05 in 10.0 mi Calm Calm - N/A   Clear
9:15 AM 35.6 °F 31.7 °F 35.6 °F 100% 30.05 in 10.0 mi WSW 4.6 mph - N/A   Clear
9:35 AM 37.4 °F 31.4 °F 35.6 °F 93% 30.05 in 10.0 mi SW 8.1 mph - N/A   Clear
9:55 AM 37.4 °F 30.8 °F 35.6 °F 93% 30.05 in 10.0 mi SW 9.2 mph - N/A   Clear
10:15 AM 41.0 °F 35.8 °F 35.6 °F 81% 30.05 in 10.0 mi SW 8.1 mph - N/A   Clear
10:35 AM 41.0 °F 35.8 °F 35.6 °F 81% 30.04 in 10.0 mi SW 8.1 mph - N/A   Clear
10:55 AM 42.8 °F 36.6 °F 35.6 °F 76% 30.04 in 10.0 mi SW 11.5 mph - N/A   Clear
11:15 AM 46.4 °F 41.5 °F 35.6 °F 66% 30.03 in 10.0 mi SSW 10.4 mph - N/A   Clear
11:35 AM 44.6 °F 38.8 °F 35.6 °F 71% 30.02 in 10.0 mi SW 11.5 mph - N/A   Clear
11:55 AM 44.6 °F 40.2 °F 35.6 °F 71% 30.01 in 10.0 mi WSW 8.1 mph - N/A   Clear
12:15 PM 44.6 °F 39.7 °F 35.6 °F 71% 30.00 in 10.0 mi SW 9.2 mph - N/A   Clear
12:35 PM 46.4 °F 41.5 °F 35.6 °F 66% 29.99 in 10.0 mi WSW 10.4 mph - N/A   Clear
12:55 PM 46.4 °F 41.5 °F 35.6 °F 66% 29.98 in 10.0 mi SW 10.4 mph - N/A   Clear
1:15 PM 46.4 °F 41.5 °F 35.6 °F 66% 29.98 in 10.0 mi SSW 10.4 mph - N/A   Clear
1:35 PM 44.6 °F 40.7 °F 35.6 °F 71% 29.97 in 10.0 mi SW 6.9 mph - N/A   Clear
1:55 PM 46.4 °F 41.5 °F 35.6 °F 66% 29.97 in 10.0 mi SW 10.4 mph - N/A   Scattered Clouds
2:15 PM 46.4 °F 42.9 °F 35.6 °F 66% 29.97 in 10.0 mi SW 6.9 mph - N/A   Overcast
2:35 PM 46.4 °F 44.3 °F 35.6 °F 66% 29.95 in 10.0 mi SSW 4.6 mph - N/A   Overcast
2:55 PM 46.4 °F 45.2 °F 35.6 °F 66% 29.94 in 10.0 mi SSW 3.5 mph - N/A   Overcast
3:15 PM 46.4 °F 44.3 °F 35.6 °F 66% 29.94 in 10.0 mi SSW 4.6 mph - N/A   Overcast
3:35 PM 46.4 °F 44.3 °F 37.4 °F 71% 29.93 in 10.0 mi South 4.6 mph - N/A   Overcast
3:55 PM 46.4 °F - 37.4 °F 71% 29.92 in 10.0 mi Calm Calm - N/A   Overcast
4:15 PM 46.4 °F - 37.4 °F 71% 29.92 in 10.0 mi Calm Calm - N/A   Overcast
4:35 PM 44.6 °F - 37.4 °F 76% 29.91 in 10.0 mi Calm Calm - N/A   Overcast
4:55 PM 44.6 °F - 37.4 °F 76% 29.91 in 10.0 mi Calm Calm - N/A   Overcast
5:15 PM 44.6 °F - 37.4 °F 76% 29.90 in 10.0 mi Calm Calm - N/A   Overcast
5:35 PM 44.6 °F - 39.2 °F 81% 29.90 in 10.0 mi Calm Calm - N/A   Overcast
5:55 PM 42.8 °F - 41.0 °F 93% 29.90 in 10.0 mi Calm Calm - N/A   Overcast
6:15 PM 42.8 °F - 41.0 °F 93% 29.89 in 10.0 mi Calm Calm - N/A Rain Light Rain
6:35 PM 42.8 °F 40.1 °F 39.2 °F 87% 29.90 in 10.0 mi North 4.6 mph - N/A Rain Light Rain
6:55 PM 41.0 °F - 41.0 °F 100% 29.89 in 10.0 mi Calm Calm - N/A Rain Light Rain
7:15 PM 41.0 °F 39.0 °F 41.0 °F 100% 29.88 in 10.0 mi North 3.5 mph - N/A Rain Rain
7:35 PM 41.0 °F - 41.0 °F 100% 29.88 in 7.0 mi Calm Calm - N/A Rain Rain
7:55 PM 41.0 °F - 41.0 °F 100% 29.87 in 7.0 mi Calm Calm - N/A Rain Light Rain
8:15 PM 41.0 °F 39.0 °F 41.0 °F 100% 29.87 in 7.0 mi North 3.5 mph - N/A Rain Light Rain
8:35 PM 39.2 °F 35.9 °F 39.2 °F 100% 29.86 in 10.0 mi NNW 4.6 mph - N/A Rain Light Rain
8:55 PM 37.4 °F 32.1 °F - N/A% 29.85 in 7.0 mi NNW 6.9 mph - N/A Rain Light Rain
9:15 PM 37.4 °F 33.8 °F - N/A% 29.85 in 5.0 mi NNW 4.6 mph - N/A Rain Rain
9:35 PM 37.4 °F 33.8 °F - N/A% 29.85 in 4.0 mi North 4.6 mph - N/A Rain Rain
9:55 PM 35.6 °F 30.7 °F - N/A% 29.84 in 4.0 mi North 5.8 mph - N/A Rain Light Rain
10:15 PM 35.6 °F 29.9 °F - N/A% 29.84 in 4.0 mi NNW 6.9 mph - N/A Rain Rain
10:35 PM 35.6 °F 30.7 °F - N/A% 29.84 in 4.0 mi NNW 5.8 mph - N/A Rain Rain
10:55 PM 35.6 °F 30.7 °F - N/A% 29.83 in 4.0 mi NNW 5.8 mph - N/A Rain Light Rain
11:15 PM 35.6 °F 31.7 °F - N/A% 29.83 in 4.0 mi North 4.6 mph - N/A Rain Light Rain
11:35 PM 35.6 °F 30.7 °F - N/A% 29.82 in 3.0 mi NNW 5.8 mph - N/A Rain Light Rain
11:55 PM 35.6 °F 32.8 °F - N/A% 29.82 in 4.0 mi North 3.5 mph - N/A Rain Rain